Time,TemperatureF,DewpointF,PressureIn,WindDirection,WindDirectionDegrees,WindSpeedMPH,WindSpeedGustMPH,Humidity,HourlyPrecipIn,Conditions,Clouds,dailyrainin,SoftwareType,DateUTC
2013-06-04 00:01:00,70.0,65.3,29.86,North,0,0.0,0.0,85,0.00,,,0.00,WUHU216HW,2013-06-04 04:01:00,
2013-06-04 00:02:00,70.0,65.3,29.86,North,0,0.0,0.0,85,0.00,,,0.00,WUHU216HW,2013-06-04 04:02:00,
2013-06-04 00:07:00,69.8,65.1,29.87,North,0,0.0,0.0,85,0.00,,,0.00,WUHU216HW,2013-06-04 04:07:00,
2013-06-04 00:12:00,69.8,65.1,29.87,North,0,0.0,0.0,85,0.00,,,0.00,WUHU216HW,2013-06-04 04:12:00,
2013-06-04 00:18:00,69.7,65.3,29.87,North,0,0.0,0.0,86,0.00,,,0.00,WUHU216HW,2013-06-04 04:18:00,
2013-06-04 00:23:00,69.7,65.3,29.87,North,0,0.0,0.0,86,0.00,,,0.00,WUHU216HW,2013-06-04 04:23:00,
2013-06-04 00:28:00,69.5,65.1,29.87,North,0,0.0,0.0,86,0.00,,,0.00,WUHU216HW,2013-06-04 04:28:00,
2013-06-04 00:33:00,69.5,65.1,29.87,North,0,0.0,0.0,86,0.00,,,0.00,WUHU216HW,2013-06-04 04:33:00,
2013-06-04 00:38:00,69.5,65.1,29.87,North,0,0.0,0.0,86,0.00,,,0.00,WUHU216HW,2013-06-04 04:38:00,
2013-06-04 00:43:00,69.3,64.9,29.87,North,0,0.0,0.0,86,0.00,,,0.00,WUHU216HW,2013-06-04 04:43:00,
2013-06-04 00:48:00,69.3,64.9,29.87,North,0,0.0,0.0,86,0.00,,,0.00,WUHU216HW,2013-06-04 04:48:00,
2013-06-04 00:53:00,69.3,64.9,29.86,North,0,0.0,0.0,86,0.00,,,0.00,WUHU216HW,2013-06-04 04:53:00,
2013-06-04 00:58:00,69.1,65.1,29.86,North,0,0.0,0.0,87,0.00,,,0.00,WUHU216HW,2013-06-04 04:58:00,
2013-06-04 01:03:00,69.1,65.1,29.87,North,0,0.0,0.0,87,0.00,,,0.00,WUHU216HW,2013-06-04 05:03:00,
2013-06-04 01:08:00,69.1,65.1,29.87,North,0,0.0,0.0,87,0.00,,,0.00,WUHU216HW,2013-06-04 05:08:00,
2013-06-04 01:13:00,69.1,65.1,29.87,North,0,0.0,0.0,87,0.00,,,0.00,WUHU216HW,2013-06-04 05:13:00,
2013-06-04 01:18:00,69.1,65.1,29.87,North,0,0.0,0.0,87,0.00,,,0.00,WUHU216HW,2013-06-04 05:18:00,
2013-06-04 01:23:00,69.1,65.1,29.86,North,0,0.0,0.0,87,0.00,,,0.00,WUHU216HW,2013-06-04 05:23:00,
2013-06-04 01:28:00,69.1,65.4,29.86,North,0,0.0,0.0,88,0.00,,,0.00,WUHU216HW,2013-06-04 05:28:00,
2013-06-04 01:33:00,69.1,65.1,29.87,North,0,0.0,0.0,87,0.00,,,0.00,WUHU216HW,2013-06-04 05:33:00,
2013-06-04 01:39:00,69.1,65.1,29.86,North,0,0.0,0.0,87,0.00,,,0.00,WUHU216HW,2013-06-04 05:39:00,
2013-06-04 01:44:00,69.1,65.1,29.86,North,0,0.0,0.0,87,0.00,,,0.00,WUHU216HW,2013-06-04 05:44:00,
2013-06-04 01:49:00,69.1,65.1,29.86,North,0,0.0,0.0,87,0.00,,,0.00,WUHU216HW,2013-06-04 05:49:00,
2013-06-04 01:54:00,68.9,64.9,29.86,North,0,0.0,0.0,87,0.00,,,0.00,WUHU216HW,2013-06-04 05:54:00,
2013-06-04 01:59:00,68.9,64.9,29.85,North,0,0.0,0.0,87,0.00,,,0.00,WUHU216HW,2013-06-04 05:59:00,
2013-06-04 02:04:00,68.8,64.7,29.85,North,0,0.0,0.0,87,0.00,,,0.00,WUHU216HW,2013-06-04 06:04:00,
2013-06-04 02:09:00,68.8,64.7,29.86,North,0,0.0,0.0,87,0.00,,,0.00,WUHU216HW,2013-06-04 06:09:00,
2013-06-04 02:14:00,68.8,65.1,29.86,North,0,0.0,0.0,88,0.00,,,0.00,WUHU216HW,2013-06-04 06:14:00,
2013-06-04 02:19:00,68.8,65.1,29.86,North,0,0.0,0.0,88,0.00,,,0.00,WUHU216HW,2013-06-04 06:19:00,
2013-06-04 02:24:00,68.8,65.1,29.86,North,0,0.0,0.0,88,0.00,,,0.00,WUHU216HW,2013-06-04 06:24:00,
2013-06-04 02:29:00,68.8,65.1,29.86,North,0,0.0,0.0,88,0.00,,,0.00,WUHU216HW,2013-06-04 06:29:00,
2013-06-04 02:34:00,68.6,64.9,29.85,North,0,0.0,0.0,88,0.00,,,0.00,WUHU216HW,2013-06-04 06:34:00,
2013-06-04 02:39:00,68.6,64.9,29.85,North,0,0.0,0.0,88,0.00,,,0.00,WUHU216HW,2013-06-04 06:39:00,
2013-06-04 02:44:00,68.6,64.9,29.86,North,0,0.0,0.0,88,0.00,,,0.00,WUHU216HW,2013-06-04 06:44:00,
2013-06-04 02:49:00,68.6,64.9,29.85,North,0,0.0,0.0,88,0.00,,,0.00,WUHU216HW,2013-06-04 06:49:00,
2013-06-04 02:54:00,68.6,64.9,29.86,North,0,0.0,0.0,88,0.00,,,0.00,WUHU216HW,2013-06-04 06:54:00,
2013-06-04 02:59:00,68.6,64.9,29.85,North,0,0.0,0.0,88,0.00,,,0.00,WUHU216HW,2013-06-04 06:59:00,
2013-06-04 03:04:00,68.6,64.9,29.85,North,0,0.0,0.0,88,0.00,,,0.00,WUHU216HW,2013-06-04 07:04:00,
2013-06-04 03:10:00,68.6,64.9,29.85,North,0,0.0,0.0,88,0.00,,,0.00,WUHU216HW,2013-06-04 07:10:00,
2013-06-04 03:15:00,68.6,64.9,29.85,North,0,0.0,0.0,88,0.00,,,0.00,WUHU216HW,2013-06-04 07:15:00,
2013-06-04 03:20:00,68.6,64.9,29.85,North,0,0.0,0.0,88,0.00,,,0.00,WUHU216HW,2013-06-04 07:20:00,
2013-06-04 03:25:00,68.6,64.9,29.85,North,0,0.0,0.0,88,0.00,,,0.00,WUHU216HW,2013-06-04 07:25:00,
2013-06-04 03:30:00,68.6,64.9,29.85,North,0,0.0,0.0,88,0.00,,,0.00,WUHU216HW,2013-06-04 07:30:00,
2013-06-04 03:35:00,68.4,64.7,29.85,North,0,0.0,0.0,88,0.00,,,0.00,WUHU216HW,2013-06-04 07:35:00,
2013-06-04 03:40:00,68.4,64.7,29.85,North,0,0.0,0.0,88,0.00,,,0.00,WUHU216HW,2013-06-04 07:40:00,
2013-06-04 03:45:00,68.4,64.7,29.85,North,0,0.0,0.0,88,0.00,,,0.00,WUHU216HW,2013-06-04 07:45:00,
2013-06-04 03:50:00,68.4,64.7,29.85,North,0,0.0,0.0,88,0.00,,,0.00,WUHU216HW,2013-06-04 07:50:00,
2013-06-04 03:55:00,68.4,64.7,29.84,North,0,0.0,0.0,88,0.00,,,0.00,WUHU216HW,2013-06-04 07:55:00,
2013-06-04 04:00:00,68.4,64.7,29.84,North,0,0.0,0.0,88,0.00,,,0.00,WUHU216HW,2013-06-04 08:00:00,
2013-06-04 04:05:00,68.4,64.7,29.85,North,0,0.0,0.0,88,0.00,,,0.00,WUHU216HW,2013-06-04 08:05:00,
2013-06-04 04:10:00,68.4,64.7,29.85,North,0,0.0,0.0,88,0.00,,,0.00,WUHU216HW,2013-06-04 08:10:00,
2013-06-04 04:16:00,68.4,64.7,29.85,North,0,0.0,0.0,88,0.00,,,0.00,WUHU216HW,2013-06-04 08:16:00,
2013-06-04 04:21:00,68.4,64.7,29.85,North,0,0.0,0.0,88,0.00,,,0.00,WUHU216HW,2013-06-04 08:21:00,
2013-06-04 04:26:00,68.4,64.7,29.85,North,0,0.0,0.0,88,0.00,,,0.00,WUHU216HW,2013-06-04 08:26:00,
2013-06-04 04:31:00,68.4,64.7,29.85,North,0,0.0,0.0,88,0.00,,,0.00,WUHU216HW,2013-06-04 08:31:00,
2013-06-04 04:36:00,68.4,64.7,29.85,North,0,0.0,0.0,88,0.00,,,0.00,WUHU216HW,2013-06-04 08:36:00,
2013-06-04 04:41:00,68.4,65.0,29.86,North,0,0.0,0.0,89,0.00,,,0.00,WUHU216HW,2013-06-04 08:41:00,
2013-06-04 04:46:00,68.4,65.0,29.86,North,0,0.0,0.0,89,0.00,,,0.00,WUHU216HW,2013-06-04 08:46:00,
2013-06-04 04:52:00,68.4,65.0,29.86,North,0,0.0,0.0,89,0.00,,,0.00,WUHU216HW,2013-06-04 08:52:00,
2013-06-04 04:57:00,68.4,65.0,29.86,North,0,0.0,0.0,89,0.00,,,0.00,WUHU216HW,2013-06-04 08:57:00,
2013-06-04 05:02:00,68.6,65.2,29.86,North,0,0.0,0.0,89,0.00,,,0.00,WUHU216HW,2013-06-04 09:02:00,
2013-06-04 05:07:00,68.6,65.2,29.86,North,0,0.0,0.0,89,0.00,,,0.00,WUHU216HW,2013-06-04 09:07:00,
2013-06-04 05:12:00,68.6,65.2,29.86,North,0,0.0,0.0,89,0.00,,,0.00,WUHU216HW,2013-06-04 09:12:00,
2013-06-04 05:17:00,68.6,65.2,29.86,North,0,0.0,0.0,89,0.00,,,0.00,WUHU216HW,2013-06-04 09:17:00,
2013-06-04 05:22:00,68.6,65.2,29.86,North,0,0.0,0.0,89,0.00,,,0.00,WUHU216HW,2013-06-04 09:22:00,
2013-06-04 05:27:00,68.6,65.2,29.86,North,0,0.0,0.0,89,0.00,,,0.00,WUHU216HW,2013-06-04 09:27:00,
2013-06-04 05:32:00,68.6,65.2,29.86,North,0,0.0,0.0,89,0.00,,,0.00,WUHU216HW,2013-06-04 09:32:00,
2013-06-04 05:37:00,68.6,65.2,29.86,North,0,0.0,0.0,89,0.00,,,0.00,WUHU216HW,2013-06-04 09:37:00,
2013-06-04 05:42:00,68.6,65.2,29.86,North,0,0.0,0.0,89,0.00,,,0.00,WUHU216HW,2013-06-04 09:42:00,
2013-06-04 05:47:00,68.6,65.2,29.86,North,0,0.0,0.0,89,0.00,,,0.00,WUHU216HW,2013-06-04 09:47:00,
2013-06-04 05:52:00,68.6,65.2,29.87,North,0,0.0,0.0,89,0.00,,,0.00,WUHU216HW,2013-06-04 09:52:00,
2013-06-04 05:57:00,68.4,65.0,29.87,North,0,0.0,0.0,89,0.00,,,0.00,WUHU216HW,2013-06-04 09:57:00,
2013-06-04 06:02:00,68.4,64.7,29.87,North,0,0.0,0.0,88,0.00,,,0.00,WUHU216HW,2013-06-04 10:02:00,
2013-06-04 06:08:00,68.4,64.7,29.87,North,0,0.0,0.0,88,0.00,,,0.00,WUHU216HW,2013-06-04 10:08:00,
2013-06-04 06:13:00,68.4,64.7,29.88,North,0,0.0,0.0,88,0.00,,,0.00,WUHU216HW,2013-06-04 10:13:00,
2013-06-04 06:18:00,68.4,64.7,29.88,North,0,0.0,0.0,88,0.00,,,0.00,WUHU216HW,2013-06-04 10:18:00,
2013-06-04 06:23:00,68.4,64.7,29.88,North,0,0.0,0.0,88,0.00,,,0.00,WUHU216HW,2013-06-04 10:23:00,
2013-06-04 06:28:00,68.4,64.7,29.88,North,0,0.0,0.0,88,0.00,,,0.00,WUHU216HW,2013-06-04 10:28:00,
2013-06-04 06:33:00,68.4,64.7,29.88,North,0,0.0,0.0,88,0.00,,,0.00,WUHU216HW,2013-06-04 10:33:00,
2013-06-04 06:38:00,68.4,64.7,29.89,North,0,0.0,0.0,88,0.00,,,0.00,WUHU216HW,2013-06-04 10:38:00,
2013-06-04 06:43:00,68.4,64.7,29.89,North,0,0.0,0.0,88,0.00,,,0.00,WUHU216HW,2013-06-04 10:43:00,
2013-06-04 06:48:00,68.6,64.9,29.89,North,0,0.0,0.0,88,0.00,,,0.00,WUHU216HW,2013-06-04 10:48:00,
2013-06-04 06:53:00,68.6,64.9,29.89,North,0,0.0,0.0,88,0.00,,,0.00,WUHU216HW,2013-06-04 10:53:00,
2013-06-04 06:58:00,68.6,64.9,29.89,North,0,0.0,0.0,88,0.00,,,0.00,WUHU216HW,2013-06-04 10:58:00,
2013-06-04 07:03:00,68.6,64.9,29.89,North,0,0.0,0.0,88,0.00,,,0.00,WUHU216HW,2013-06-04 11:03:00,
2013-06-04 07:08:00,68.8,65.1,29.89,North,0,0.0,0.0,88,0.00,,,0.00,WUHU216HW,2013-06-04 11:08:00,
2013-06-04 07:13:00,68.8,65.1,29.90,North,0,0.0,0.0,88,0.00,,,0.00,WUHU216HW,2013-06-04 11:13:00,
2013-06-04 07:18:00,68.8,65.1,29.90,North,0,0.0,0.0,88,0.00,,,0.00,WUHU216HW,2013-06-04 11:18:00,
2013-06-04 07:23:00,68.8,65.1,29.90,North,0,0.0,0.0,88,0.00,,,0.00,WUHU216HW,2013-06-04 11:23:00,
2013-06-04 07:28:00,68.9,65.3,29.90,North,0,0.0,0.0,88,0.00,,,0.00,WUHU216HW,2013-06-04 11:28:00,
2013-06-04 07:34:00,69.1,65.4,29.90,North,0,0.0,0.0,88,0.00,,,0.00,WUHU216HW,2013-06-04 11:34:00,
2013-06-04 07:39:00,69.3,65.6,29.90,North,0,0.0,0.0,88,0.00,,,0.00,WUHU216HW,2013-06-04 11:39:00,
2013-06-04 07:44:00,69.3,65.6,29.90,North,0,0.0,0.0,88,0.00,,,0.00,WUHU216HW,2013-06-04 11:44:00,
2013-06-04 07:49:00,69.7,65.9,29.91,North,0,0.0,0.0,88,0.00,,,0.00,WUHU216HW,2013-06-04 11:49:00,
2013-06-04 07:54:00,69.8,66.1,29.91,North,0,0.0,0.0,88,0.00,,,0.00,WUHU216HW,2013-06-04 11:54:00,
2013-06-04 07:59:00,70.2,66.2,29.91,North,0,0.0,0.0,87,0.00,,,0.00,WUHU216HW,2013-06-04 11:59:00,
2013-06-04 08:04:00,71.1,67.1,29.91,North,0,0.0,0.0,87,0.00,,,0.00,WUHU216HW,2013-06-04 12:04:00,
2013-06-04 08:09:00,72.4,68.0,29.91,North,0,0.0,0.0,86,0.00,,,0.00,WUHU216HW,2013-06-04 12:09:00,
2013-06-04 08:14:00,74.0,69.6,29.91,North,0,0.0,0.0,86,0.00,,,0.00,WUHU216HW,2013-06-04 12:14:00,
2013-06-04 08:19:00,75.1,69.9,29.91,North,0,0.0,0.0,84,0.00,,,0.00,WUHU216HW,2013-06-04 12:19:00,
2013-06-04 08:24:00,76.0,70.1,29.91,North,0,0.0,0.0,82,0.00,,,0.00,WUHU216HW,2013-06-04 12:24:00,
2013-06-04 08:29:00,76.0,69.8,29.91,North,0,0.0,0.0,81,0.00,,,0.00,WUHU216HW,2013-06-04 12:29:00,
2013-06-04 08:34:00,75.2,68.4,29.91,North,0,0.0,0.0,79,0.00,,,0.00,WUHU216HW,2013-06-04 12:34:00,
2013-06-04 08:39:00,75.2,68.0,29.91,North,0,0.0,0.0,78,0.00,,,0.00,WUHU216HW,2013-06-04 12:39:00,
2013-06-04 08:44:00,74.9,67.6,29.91,North,0,0.0,0.0,78,0.00,,,0.00,WUHU216HW,2013-06-04 12:44:00,
2013-06-04 08:49:00,75.2,68.0,29.92,North,0,0.0,0.0,78,0.00,,,0.00,WUHU216HW,2013-06-04 12:49:00,
2013-06-04 08:55:00,75.2,67.6,29.92,North,0,0.0,0.0,77,0.00,,,0.00,WUHU216HW,2013-06-04 12:55:00,
2013-06-04 09:00:00,75.2,67.6,29.92,North,0,0.0,0.0,77,0.00,,,0.00,WUHU216HW,2013-06-04 13:00:00,
2013-06-04 09:05:00,75.4,67.8,29.92,North,0,0.0,0.0,77,0.00,,,0.00,WUHU216HW,2013-06-04 13:05:00,
2013-06-04 09:10:00,75.6,67.5,29.93,North,0,0.0,0.0,76,0.00,,,0.00,WUHU216HW,2013-06-04 13:10:00,
2013-06-04 09:15:00,76.0,67.9,29.93,North,0,0.0,0.0,76,0.00,,,0.00,WUHU216HW,2013-06-04 13:15:00,
2013-06-04 09:20:00,76.3,67.8,29.93,North,0,0.0,0.0,75,0.00,,,0.00,WUHU216HW,2013-06-04 13:20:00,
2013-06-04 09:25:00,76.5,67.6,29.92,North,0,0.0,0.0,74,0.00,,,0.00,WUHU216HW,2013-06-04 13:25:00,
2013-06-04 09:30:00,76.7,67.8,29.92,North,0,0.0,0.0,74,0.00,,,0.00,WUHU216HW,2013-06-04 13:30:00,
2013-06-04 09:35:00,76.9,67.6,29.93,North,0,0.0,0.0,73,0.00,,,0.00,WUHU216HW,2013-06-04 13:35:00,
2013-06-04 09:40:00,77.0,67.8,29.93,North,0,0.0,0.0,73,0.00,,,0.00,WUHU216HW,2013-06-04 13:40:00,
2013-06-04 09:45:00,77.4,68.0,29.93,North,0,0.0,0.0,73,0.00,,,0.00,WUHU216HW,2013-06-04 13:45:00,
2013-06-04 09:50:00,77.6,68.6,29.93,North,0,0.0,0.0,74,0.00,,,0.00,WUHU216HW,2013-06-04 13:50:00,
2013-06-04 09:55:00,78.1,68.8,29.94,North,0,0.0,0.0,73,0.00,,,0.00,WUHU216HW,2013-06-04 13:55:00,
2013-06-04 10:01:00,78.5,69.0,29.93,North,0,0.0,0.0,73,0.00,,,0.00,WUHU216HW,2013-06-04 14:01:00,
2013-06-04 10:06:00,78.8,69.4,29.94,North,0,0.0,0.0,73,0.00,,,0.00,WUHU216HW,2013-06-04 14:06:00,
2013-06-04 10:11:00,79.0,69.2,29.94,North,0,0.0,0.0,72,0.00,,,0.00,WUHU216HW,2013-06-04 14:11:00,
2013-06-04 10:16:00,79.0,69.2,29.94,North,0,0.0,0.0,72,0.00,,,0.00,WUHU216HW,2013-06-04 14:16:00,
2013-06-04 10:21:00,79.2,69.4,29.94,North,0,0.0,0.0,72,0.00,,,0.00,WUHU216HW,2013-06-04 14:21:00,
2013-06-04 10:26:00,79.4,69.1,29.94,North,0,0.0,0.0,71,0.00,,,0.00,WUHU216HW,2013-06-04 14:26:00,
2013-06-04 10:31:00,79.9,69.7,29.94,North,0,0.0,0.0,71,0.00,,,0.00,WUHU216HW,2013-06-04 14:31:00,
2013-06-04 10:36:00,80.3,70.0,29.93,North,0,0.0,0.0,71,0.00,,,0.00,WUHU216HW,2013-06-04 14:36:00,
2013-06-04 10:41:00,80.3,69.7,29.94,North,0,0.0,0.0,70,0.00,,,0.00,WUHU216HW,2013-06-04 14:41:00,
2013-06-04 10:46:00,80.3,69.7,29.94,North,0,0.0,0.0,70,0.00,,,0.00,WUHU216HW,2013-06-04 14:46:00,
2013-06-04 10:52:00,80.3,69.7,29.94,North,0,0.0,0.0,70,0.00,,,0.00,WUHU216HW,2013-06-04 14:52:00,
2013-06-04 10:57:00,80.3,69.7,29.94,North,0,0.0,0.0,70,0.00,,,0.00,WUHU216HW,2013-06-04 14:57:00,
2013-06-04 11:02:00,80.5,69.8,29.94,North,0,0.0,0.0,70,0.00,,,0.00,WUHU216HW,2013-06-04 15:02:00,
2013-06-04 11:07:00,80.8,70.2,29.94,North,0,0.0,0.0,70,0.00,,,0.00,WUHU216HW,2013-06-04 15:07:00,
2013-06-04 11:12:00,81.2,70.0,29.94,North,0,0.0,0.0,69,0.00,,,0.00,WUHU216HW,2013-06-04 15:12:00,
2013-06-04 11:17:00,81.2,70.0,29.94,North,0,0.0,0.0,69,0.00,,,0.00,WUHU216HW,2013-06-04 15:17:00,
2013-06-04 11:22:00,81.2,69.1,29.94,North,0,0.0,0.0,67,0.00,,,0.00,WUHU216HW,2013-06-04 15:22:00,
2013-06-04 11:27:00,80.8,69.3,29.94,North,0,0.0,0.0,68,0.00,,,0.00,WUHU216HW,2013-06-04 15:27:00,
2013-06-04 11:32:00,80.8,69.3,29.95,North,0,0.0,0.0,68,0.00,,,0.00,WUHU216HW,2013-06-04 15:32:00,
2013-06-04 11:37:00,80.8,69.3,29.95,North,0,0.0,0.0,68,0.00,,,0.00,WUHU216HW,2013-06-04 15:37:00,
2013-06-04 11:42:00,80.8,69.3,29.95,North,0,0.0,0.0,68,0.00,,,0.00,WUHU216HW,2013-06-04 15:42:00,
2013-06-04 11:47:00,80.6,69.1,29.95,North,0,0.0,0.0,68,0.00,,,0.00,WUHU216HW,2013-06-04 15:47:00,
2013-06-04 11:52:00,80.6,69.1,29.95,North,0,0.0,0.0,68,0.00,,,0.00,WUHU216HW,2013-06-04 15:52:00,
2013-06-04 11:57:00,80.3,68.3,29.95,North,0,0.0,0.0,67,0.00,,,0.00,WUHU216HW,2013-06-04 15:57:00,
2013-06-04 12:02:00,79.7,68.2,29.95,North,0,0.0,0.0,68,0.00,,,0.00,WUHU216HW,2013-06-04 16:02:00,
2013-06-04 12:07:00,79.7,68.7,29.95,North,0,0.0,0.0,69,0.00,,,0.00,WUHU216HW,2013-06-04 16:07:00,
2013-06-04 12:13:00,79.6,68.5,29.95,North,0,0.0,0.0,69,0.00,,,0.00,WUHU216HW,2013-06-04 16:13:00,
2013-06-04 12:18:00,79.6,68.5,29.95,North,0,0.0,0.0,69,0.00,,,0.00,WUHU216HW,2013-06-04 16:18:00,
2013-06-04 12:23:00,80.1,69.5,29.95,North,0,0.0,0.0,70,0.00,,,0.00,WUHU216HW,2013-06-04 16:23:00,
2013-06-04 12:28:00,80.6,69.6,29.95,North,0,0.0,0.0,69,0.00,,,0.00,WUHU216HW,2013-06-04 16:28:00,
2013-06-04 12:33:00,81.0,69.9,29.95,North,0,0.0,0.0,69,0.00,,,0.00,WUHU216HW,2013-06-04 16:33:00,
2013-06-04 12:38:00,81.2,69.6,29.95,North,0,0.0,0.0,68,0.00,,,0.00,WUHU216HW,2013-06-04 16:38:00,
2013-06-04 12:43:00,81.0,69.0,29.95,North,0,0.0,0.0,67,0.00,,,0.00,WUHU216HW,2013-06-04 16:43:00,
2013-06-04 12:48:00,81.0,69.5,29.95,North,0,0.0,0.0,68,0.00,,,0.00,WUHU216HW,2013-06-04 16:48:00,
2013-06-04 12:53:00,81.4,69.3,29.94,North,0,0.0,0.0,67,0.00,,,0.00,WUHU216HW,2013-06-04 16:53:00,
2013-06-04 12:58:00,81.7,69.7,29.94,North,0,0.0,0.0,67,0.00,,,0.00,WUHU216HW,2013-06-04 16:58:00,
2013-06-04 13:04:00,82.1,69.5,29.94,North,0,0.0,0.0,66,0.00,,,0.00,WUHU216HW,2013-06-04 17:04:00,
2013-06-04 13:09:00,82.1,69.9,29.94,North,0,0.0,0.0,67,0.00,,,0.00,WUHU216HW,2013-06-04 17:09:00,
2013-06-04 13:14:00,81.9,69.4,29.94,North,0,0.0,0.0,66,0.00,,,0.00,WUHU216HW,2013-06-04 17:14:00,
2013-06-04 13:19:00,81.7,69.2,29.94,North,0,0.0,0.0,66,0.00,,,0.00,WUHU216HW,2013-06-04 17:19:00,
2013-06-04 13:24:00,81.5,69.0,29.94,North,0,0.0,0.0,66,0.00,,,0.00,WUHU216HW,2013-06-04 17:24:00,
2013-06-04 13:29:00,81.0,68.6,29.93,North,0,0.0,0.0,66,0.00,,,0.00,WUHU216HW,2013-06-04 17:29:00,
2013-06-04 13:34:00,80.8,68.9,29.93,North,0,0.0,0.0,67,0.00,,,0.00,WUHU216HW,2013-06-04 17:34:00,
2013-06-04 13:39:00,80.6,68.7,29.94,North,0,0.0,0.0,67,0.00,,,0.00,WUHU216HW,2013-06-04 17:39:00,
2013-06-04 13:44:00,80.5,68.5,29.94,North,0,0.0,0.0,67,0.00,,,0.00,WUHU216HW,2013-06-04 17:44:00,
2013-06-04 13:49:00,80.3,68.3,29.93,North,0,0.0,0.0,67,0.00,,,0.00,WUHU216HW,2013-06-04 17:49:00,
2013-06-04 13:54:00,80.5,68.9,29.93,North,0,0.0,0.0,68,0.00,,,0.00,WUHU216HW,2013-06-04 17:54:00,
2013-06-04 13:59:00,80.5,68.5,29.93,North,0,0.0,0.0,67,0.00,,,0.00,WUHU216HW,2013-06-04 17:59:00,
2013-06-04 14:04:00,80.5,68.5,29.93,North,0,0.0,0.0,67,0.00,,,0.00,WUHU216HW,2013-06-04 18:04:00,
2013-06-04 14:09:00,80.3,68.8,29.93,North,0,0.0,0.0,68,0.00,,,0.00,WUHU216HW,2013-06-04 18:09:00,
2013-06-04 14:15:00,80.3,68.3,29.93,North,0,0.0,0.0,67,0.00,,,0.00,WUHU216HW,2013-06-04 18:15:00,
2013-06-04 14:20:00,80.3,68.3,29.93,North,0,0.0,0.0,67,0.00,,,0.00,WUHU216HW,2013-06-04 18:20:00,
2013-06-04 14:25:00,80.3,68.3,29.92,North,0,0.0,0.0,67,0.00,,,0.00,WUHU216HW,2013-06-04 18:25:00,
2013-06-04 14:30:00,80.8,68.9,29.92,North,0,0.0,0.0,67,0.00,,,0.00,WUHU216HW,2013-06-04 18:30:00,
2013-06-04 14:35:00,81.0,69.0,29.92,North,0,0.0,0.0,67,0.00,,,0.00,WUHU216HW,2013-06-04 18:35:00,
2013-06-04 14:40:00,81.2,69.1,29.92,North,0,0.0,0.0,67,0.00,,,0.00,WUHU216HW,2013-06-04 18:40:00,
2013-06-04 14:45:00,81.5,69.5,29.92,North,0,0.0,0.0,67,0.00,,,0.00,WUHU216HW,2013-06-04 18:45:00,
2013-06-04 14:50:00,81.7,69.2,29.92,North,0,0.0,0.0,66,0.00,,,0.00,WUHU216HW,2013-06-04 18:50:00,
2013-06-04 14:55:00,81.9,69.4,29.92,North,0,0.0,0.0,66,0.00,,,0.00,WUHU216HW,2013-06-04 18:55:00,
2013-06-04 15:00:00,82.1,69.5,29.92,North,0,0.0,0.0,66,0.00,,,0.00,WUHU216HW,2013-06-04 19:00:00,
2013-06-04 15:05:00,82.1,69.5,29.92,North,0,0.0,0.0,66,0.00,,,0.00,WUHU216HW,2013-06-04 19:05:00,
2013-06-04 15:10:00,82.1,69.0,29.91,North,0,0.0,0.0,65,0.00,,,0.00,WUHU216HW,2013-06-04 19:10:00,
2013-06-04 15:15:00,81.7,68.8,29.91,North,0,0.0,0.0,65,0.00,,,0.00,WUHU216HW,2013-06-04 19:15:00,
2013-06-04 15:21:00,81.7,69.2,29.91,North,0,0.0,0.0,66,0.00,,,0.00,WUHU216HW,2013-06-04 19:21:00,
2013-06-04 15:26:00,81.7,69.2,29.91,North,0,0.0,0.0,66,0.00,,,0.00,WUHU216HW,2013-06-04 19:26:00,
2013-06-04 15:31:00,81.7,68.8,29.91,North,0,0.0,0.0,65,0.00,,,0.00,WUHU216HW,2013-06-04 19:31:00,
2013-06-04 15:37:00,81.9,69.0,29.91,North,0,0.0,0.0,65,0.00,,,0.00,WUHU216HW,2013-06-04 19:37:00,
2013-06-04 15:42:00,82.3,69.7,29.91,North,0,0.0,0.0,66,0.00,,,0.00,WUHU216HW,2013-06-04 19:42:00,
2013-06-04 15:47:00,82.3,69.7,29.91,North,0,0.0,0.0,66,0.00,,,0.00,WUHU216HW,2013-06-04 19:47:00,
2013-06-04 15:52:00,82.1,69.5,29.91,North,0,0.0,0.0,66,0.00,,,0.00,WUHU216HW,2013-06-04 19:52:00,
2013-06-04 15:57:00,81.9,69.9,29.91,North,0,0.0,0.0,67,0.00,,,0.00,WUHU216HW,2013-06-04 19:57:00,
2013-06-04 16:02:00,81.7,69.2,29.91,North,0,0.0,0.0,66,0.00,,,0.00,WUHU216HW,2013-06-04 20:02:00,
2013-06-04 16:07:00,81.7,69.7,29.91,North,0,0.0,0.0,67,0.00,,,0.00,WUHU216HW,2013-06-04 20:07:00,
2013-06-04 16:12:00,81.5,69.9,29.91,North,0,0.0,0.0,68,0.00,,,0.00,WUHU216HW,2013-06-04 20:12:00,
2013-06-04 16:17:00,81.4,70.2,29.91,North,0,0.0,0.0,69,0.00,,,0.00,WUHU216HW,2013-06-04 20:17:00,
2013-06-04 16:22:00,81.0,69.5,29.91,North,0,0.0,0.0,68,0.00,,,0.00,WUHU216HW,2013-06-04 20:22:00,
2013-06-04 16:27:00,81.0,69.9,29.92,North,0,0.0,0.0,69,0.00,,,0.00,WUHU216HW,2013-06-04 20:27:00,
2013-06-04 16:32:00,81.2,69.6,29.91,North,0,0.0,0.0,68,0.00,,,0.00,WUHU216HW,2013-06-04 20:32:00,
2013-06-04 16:38:00,81.2,69.1,29.91,North,0,0.0,0.0,67,0.00,,,0.00,WUHU216HW,2013-06-04 20:38:00,
2013-06-04 16:43:00,81.2,68.7,29.91,North,0,0.0,0.0,66,0.00,,,0.00,WUHU216HW,2013-06-04 20:43:00,
2013-06-04 16:48:00,81.4,68.9,29.91,North,0,0.0,0.0,66,0.00,,,0.00,WUHU216HW,2013-06-04 20:48:00,
2013-06-04 16:53:00,81.4,69.3,29.91,North,0,0.0,0.0,67,0.00,,,0.00,WUHU216HW,2013-06-04 20:53:00,
2013-06-04 16:58:00,81.4,69.3,29.91,North,0,0.0,0.0,67,0.00,,,0.00,WUHU216HW,2013-06-04 20:58:00,
2013-06-04 17:03:00,81.2,69.6,29.91,North,0,0.0,0.0,68,0.00,,,0.00,WUHU216HW,2013-06-04 21:03:00,
2013-06-04 17:08:00,81.0,69.0,29.91,North,0,0.0,0.0,67,0.00,,,0.00,WUHU216HW,2013-06-04 21:08:00,
2013-06-04 17:13:00,80.8,68.9,29.91,North,0,0.0,0.0,67,0.00,,,0.00,WUHU216HW,2013-06-04 21:13:00,
2013-06-04 17:18:00,80.6,68.7,29.91,North,0,0.0,0.0,67,0.00,,,0.00,WUHU216HW,2013-06-04 21:18:00,
2013-06-04 17:23:00,80.6,68.7,29.91,North,0,0.0,0.0,67,0.00,,,0.00,WUHU216HW,2013-06-04 21:23:00,
2013-06-04 17:28:00,80.6,68.7,29.91,North,0,0.0,0.0,67,0.00,,,0.00,WUHU216HW,2013-06-04 21:28:00,
2013-06-04 17:33:00,80.6,68.7,29.91,North,0,0.0,0.0,67,0.00,,,0.00,WUHU216HW,2013-06-04 21:33:00,
2013-06-04 17:38:00,80.5,68.5,29.91,North,0,0.0,0.0,67,0.00,,,0.00,WUHU216HW,2013-06-04 21:38:00,
2013-06-04 17:43:00,80.6,68.7,29.90,North,0,0.0,0.0,67,0.00,,,0.00,WUHU216HW,2013-06-04 21:43:00,
2013-06-04 17:48:00,80.6,69.1,29.90,North,0,0.0,0.0,68,0.00,,,0.00,WUHU216HW,2013-06-04 21:48:00,
2013-06-04 17:53:00,80.5,69.4,29.90,North,0,0.0,0.0,69,0.00,,,0.00,WUHU216HW,2013-06-04 21:53:00,
2013-06-04 17:58:00,80.3,68.8,29.90,North,0,0.0,0.0,68,0.00,,,0.00,WUHU216HW,2013-06-04 21:58:00,
2013-06-04 18:03:00,80.3,68.8,29.90,North,0,0.0,0.0,68,0.00,,,0.00,WUHU216HW,2013-06-04 22:03:00,
2013-06-04 18:08:00,80.3,68.8,29.90,North,0,0.0,0.0,68,0.00,,,0.00,WUHU216HW,2013-06-04 22:08:00,
2013-06-04 18:14:00,81.0,69.5,29.90,North,0,0.0,0.0,68,0.00,,,0.00,WUHU216HW,2013-06-04 22:14:00,
2013-06-04 18:19:00,81.2,69.6,29.90,North,0,0.0,0.0,68,0.00,,,0.00,WUHU216HW,2013-06-04 22:19:00,
2013-06-04 18:24:00,81.0,69.0,29.91,North,0,0.0,0.0,67,0.00,,,0.00,WUHU216HW,2013-06-04 22:24:00,
2013-06-04 18:29:00,80.6,68.7,29.90,North,0,0.0,0.0,67,0.00,,,0.00,WUHU216HW,2013-06-04 22:29:00,
2013-06-04 18:34:00,80.6,68.7,29.90,North,0,0.0,0.0,67,0.00,,,0.00,WUHU216HW,2013-06-04 22:34:00,
2013-06-04 18:39:00,80.3,68.3,29.91,North,0,0.0,0.0,67,0.00,,,0.00,WUHU216HW,2013-06-04 22:39:00,
2013-06-04 18:44:00,80.1,68.1,29.91,North,0,0.0,0.0,67,0.00,,,0.00,WUHU216HW,2013-06-04 22:44:00,
2013-06-04 18:49:00,79.9,68.0,29.91,North,0,0.0,0.0,67,0.00,,,0.00,WUHU216HW,2013-06-04 22:49:00,
2013-06-04 18:54:00,79.7,68.2,29.91,North,0,0.0,0.0,68,0.00,,,0.00,WUHU216HW,2013-06-04 22:54:00,
2013-06-04 18:59:00,79.7,68.2,29.91,North,0,0.0,0.0,68,0.00,,,0.00,WUHU216HW,2013-06-04 22:59:00,
2013-06-04 19:04:00,79.6,68.0,29.91,North,0,0.0,0.0,68,0.00,,,0.00,WUHU216HW,2013-06-04 23:04:00,
2013-06-04 19:09:00,79.6,67.6,29.91,North,0,0.0,0.0,67,0.00,,,0.00,WUHU216HW,2013-06-04 23:09:00,
2013-06-04 19:14:00,79.4,68.3,29.92,North,0,0.0,0.0,69,0.00,,,0.00,WUHU216HW,2013-06-04 23:14:00,
2013-06-04 19:19:00,79.2,67.7,29.91,North,0,0.0,0.0,68,0.00,,,0.00,WUHU216HW,2013-06-04 23:19:00,
2013-06-04 19:25:00,79.2,67.7,29.92,North,0,0.0,0.0,68,0.00,,,0.00,WUHU216HW,2013-06-04 23:25:00,
2013-06-04 19:30:00,79.0,68.0,29.92,North,0,0.0,0.0,69,0.00,,,0.00,WUHU216HW,2013-06-04 23:30:00,
2013-06-04 19:35:00,79.0,68.0,29.92,North,0,0.0,0.0,69,0.00,,,0.00,WUHU216HW,2013-06-04 23:35:00,
2013-06-04 19:40:00,79.0,68.4,29.92,North,0,0.0,0.0,70,0.00,,,0.00,WUHU216HW,2013-06-04 23:40:00,
2013-06-04 19:45:00,78.8,68.2,29.92,North,0,0.0,0.0,70,0.00,,,0.00,WUHU216HW,2013-06-04 23:45:00,
2013-06-04 19:50:00,78.8,68.2,29.92,North,0,0.0,0.0,70,0.00,,,0.00,WUHU216HW,2013-06-04 23:50:00,
2013-06-04 19:55:00,78.7,68.0,29.93,North,0,0.0,0.0,70,0.00,,,0.00,WUHU216HW,2013-06-04 23:55:00,
2013-06-04 20:00:00,78.7,68.0,29.93,North,0,0.0,0.0,70,0.00,,,0.00,WUHU216HW,2013-06-05 00:00:00,
2013-06-04 20:05:00,78.5,67.9,29.94,North,0,0.0,0.0,70,0.00,,,0.00,WUHU216HW,2013-06-05 00:05:00,
2013-06-04 20:10:00,78.5,67.9,29.93,North,0,0.0,0.0,70,0.00,,,0.00,WUHU216HW,2013-06-05 00:10:00,
2013-06-04 20:15:00,78.3,68.1,29.93,North,0,0.0,0.0,71,0.00,,,0.00,WUHU216HW,2013-06-05 00:15:00,
2013-06-04 20:20:00,78.1,68.0,29.94,North,0,0.0,0.0,71,0.00,,,0.00,WUHU216HW,2013-06-05 00:20:00,
2013-06-04 20:25:00,78.1,68.0,29.94,North,0,0.0,0.0,71,0.00,,,0.00,WUHU216HW,2013-06-05 00:25:00,
2013-06-04 20:30:00,77.9,67.8,29.94,North,0,0.0,0.0,71,0.00,,,0.00,WUHU216HW,2013-06-05 00:30:00,
2013-06-04 20:35:00,77.8,67.6,29.94,North,0,0.0,0.0,71,0.00,,,0.00,WUHU216HW,2013-06-05 00:35:00,
2013-06-04 20:40:00,77.8,68.1,29.94,North,0,0.0,0.0,72,0.00,,,0.00,WUHU216HW,2013-06-05 00:40:00,
2013-06-04 20:45:00,77.6,67.5,29.94,North,0,0.0,0.0,71,0.00,,,0.00,WUHU216HW,2013-06-05 00:45:00,
2013-06-04 20:50:00,77.4,67.7,29.94,North,0,0.0,0.0,72,0.00,,,0.00,WUHU216HW,2013-06-05 00:50:00,
2013-06-04 20:55:00,77.2,67.9,29.94,North,0,0.0,0.0,73,0.00,,,0.00,WUHU216HW,2013-06-05 00:55:00,
2013-06-04 21:00:00,77.0,67.8,29.95,North,0,0.0,0.0,73,0.00,,,0.00,WUHU216HW,2013-06-05 01:00:00,
2013-06-04 21:06:00,77.0,67.8,29.95,North,0,0.0,0.0,73,0.00,,,0.00,WUHU216HW,2013-06-05 01:06:00,
2013-06-04 21:11:00,76.9,68.0,29.95,North,0,0.0,0.0,74,0.00,,,0.00,WUHU216HW,2013-06-05 01:11:00,
2013-06-04 21:16:00,76.7,67.8,29.95,North,0,0.0,0.0,74,0.00,,,0.00,WUHU216HW,2013-06-05 01:16:00,
2013-06-04 21:21:00,76.7,67.8,29.95,North,0,0.0,0.0,74,0.00,,,0.00,WUHU216HW,2013-06-05 01:21:00,
2013-06-04 21:26:00,76.5,68.0,29.95,North,0,0.0,0.0,75,0.00,,,0.00,WUHU216HW,2013-06-05 01:26:00,
2013-06-04 21:31:00,76.3,67.8,29.96,North,0,0.0,0.0,75,0.00,,,0.00,WUHU216HW,2013-06-05 01:31:00,
2013-06-04 21:36:00,76.1,67.7,29.96,North,0,0.0,0.0,75,0.00,,,0.00,WUHU216HW,2013-06-05 01:36:00,
2013-06-04 21:41:00,76.0,67.5,29.96,North,0,0.0,0.0,75,0.00,,,0.00,WUHU216HW,2013-06-05 01:41:00,
2013-06-04 21:46:00,75.8,67.3,29.96,North,0,0.0,0.0,75,0.00,,,0.00,WUHU216HW,2013-06-05 01:46:00,
2013-06-04 21:51:00,75.6,67.2,29.96,North,0,0.0,0.0,75,0.00,,,0.00,WUHU216HW,2013-06-05 01:51:00,
2013-06-04 21:57:00,75.6,67.2,29.96,North,0,0.0,0.0,75,0.00,,,0.00,WUHU216HW,2013-06-05 01:57:00,
2013-06-04 22:02:00,75.4,67.3,29.96,North,0,0.0,0.0,76,0.00,,,0.00,WUHU216HW,2013-06-05 02:02:00,
2013-06-04 22:07:00,75.2,67.1,29.96,North,0,0.0,0.0,76,0.00,,,0.00,WUHU216HW,2013-06-05 02:07:00,
2013-06-04 22:12:00,75.2,67.1,29.96,North,0,0.0,0.0,76,0.00,,,0.00,WUHU216HW,2013-06-05 02:12:00,
2013-06-04 22:17:00,75.1,67.4,29.97,North,0,0.0,0.0,77,0.00,,,0.00,WUHU216HW,2013-06-05 02:17:00,
2013-06-04 22:22:00,74.9,67.2,29.97,North,0,0.0,0.0,77,0.00,,,0.00,WUHU216HW,2013-06-05 02:22:00,
2013-06-04 22:27:00,74.9,67.2,29.96,North,0,0.0,0.0,77,0.00,,,0.00,WUHU216HW,2013-06-05 02:27:00,
2013-06-04 22:32:00,74.9,67.2,29.96,North,0,0.0,0.0,77,0.00,,,0.00,WUHU216HW,2013-06-05 02:32:00,
2013-06-04 22:37:00,74.7,67.1,29.96,North,0,0.0,0.0,77,0.00,,,0.00,WUHU216HW,2013-06-05 02:37:00,
2013-06-04 22:42:00,74.5,66.9,29.96,North,0,0.0,0.0,77,0.00,,,0.00,WUHU216HW,2013-06-05 02:42:00,
2013-06-04 22:47:00,74.3,66.7,29.96,North,0,0.0,0.0,77,0.00,,,0.00,WUHU216HW,2013-06-05 02:47:00,
2013-06-04 22:52:00,74.3,67.1,29.96,North,0,0.0,0.0,78,0.00,,,0.00,WUHU216HW,2013-06-05 02:52:00,
2013-06-04 22:57:00,74.2,66.5,29.96,North,0,0.0,0.0,77,0.00,,,0.00,WUHU216HW,2013-06-05 02:57:00,
2013-06-04 23:02:00,74.2,66.9,29.96,North,0,0.0,0.0,78,0.00,,,0.00,WUHU216HW,2013-06-05 03:02:00,
2013-06-04 23:08:00,74.0,66.3,29.96,North,0,0.0,0.0,77,0.00,,,0.00,WUHU216HW,2013-06-05 03:08:00,
2013-06-04 23:13:00,74.0,66.7,29.96,North,0,0.0,0.0,78,0.00,,,0.00,WUHU216HW,2013-06-05 03:13:00,
2013-06-04 23:18:00,73.8,66.6,29.96,North,0,0.0,0.0,78,0.00,,,0.00,WUHU216HW,2013-06-05 03:18:00,
2013-06-04 23:23:00,73.8,66.6,29.96,North,0,0.0,0.0,78,0.00,,,0.00,WUHU216HW,2013-06-05 03:23:00,
2013-06-04 23:28:00,73.6,66.4,29.97,North,0,0.0,0.0,78,0.00,,,0.00,WUHU216HW,2013-06-05 03:28:00,
2013-06-04 23:33:00,73.6,66.4,29.97,North,0,0.0,0.0,78,0.00,,,0.00,WUHU216HW,2013-06-05 03:33:00,
2013-06-04 23:38:00,73.4,66.3,29.97,North,0,0.0,0.0,78,0.00,,,0.00,WUHU216HW,2013-06-05 03:38:00,
2013-06-04 23:43:00,73.4,66.3,29.97,North,0,0.0,0.0,78,0.00,,,0.00,WUHU216HW,2013-06-05 03:43:00,
2013-06-04 23:48:00,73.3,66.1,29.97,North,0,0.0,0.0,78,0.00,,,0.00,WUHU216HW,2013-06-05 03:48:00,
2013-06-04 23:53:00,73.3,66.1,29.97,North,0,0.0,0.0,78,0.00,,,0.00,WUHU216HW,2013-06-05 03:53:00,
2013-06-04 23:58:00,73.1,65.9,29.97,North,0,0.0,0.0,78,0.00,,,0.00,WUHU216HW,2013-06-05 03:58:00,